Data for 11/13/2017

Time Sea-Level Adjusted Pressure Absolute Pressure Temperature Relative Humidity Dew Point   
(mb) (inHg) (mb) (inHg) (C) (F) (%) (C) (F)
00:05 1019 30.09 848 25.04 1.2 34.1 75 -2.8 27
00:10 1019 30.09 848 25.04 1 33.8 73 -3.4 26
00:15 1019 30.09 848 25.04 1.3 34.3 71 -3.4 25.8
00:20 1019 30.09 848 25.04 1.6 34.9 68 -3.7 25.4
00:25 1019 30.09 848 25.04 2 35.6 68 -3.3 26
00:30 1019 30.09 848 25.04 2.1 35.8 65 -3.7 25.3
00:35 1019 30.09 848 25.04 2.3 36.1 66 -3.5 25.8
00:40 1019 30.09 848 25.04 2.2 36 66 -3.6 25.6
00:45 1019 30.09 848 25.04 2.3 36.1 66 -3.4 25.9
00:50 1019 30.09 848 25.04 2.2 36 66 -3.4 25.8
00:55 1019 30.09 848 25.04 2 35.5 67 -3.5 25.7
01:00 1019 30.09 848 25.04 2 35.6 67 -3.5 25.7
01:05 1019 30.09 848 25.04 1.8 35.3 69 -3.2 26.3
01:10 1019 30.09 848 25.04 1.7 35.1 69 -3.3 26
01:15 1019 30.09 848 25.04 1.9 35.4 67 -3.7 25.4
01:20 1019 30.09 848 25.04 2.2 35.9 65 -3.8 25.2
01:25 1018 30.06 848 25.04 2 35.5 67 -3.6 25.6
01:30 1018 30.06 848 25.04 2 35.6 65 -3.8 25.2
01:35 1018 30.06 848 25.04 2.1 35.7 65 -3.8 25.1
01:40 1018 30.06 848 25.04 2.1 35.8 65 -3.7 25.3
01:45 1018 30.06 848 25.04 2 35.7 66 -3.6 25.4
01:50 1018 30.06 847 25.01 2.1 35.8 67 -3.4 25.8
01:55 1018 30.06 848 25.04 2 35.6 68 -3.2 26.2
02:00 1018 30.06 848 25.04 1.7 35.1 69 -3.3 26
02:05 1018 30.06 848 25.04 1.7 35.1 69 -3.5 25.8
02:10 1018 30.06 848 25.04 1.8 35.3 69 -3.3 26.1
02:15 1018 30.06 848 25.04 1.8 35.2 67 -3.8 25.2
02:20 1018 30.06 848 25.04 2 35.6 66 -3.6 25.5
02:25 1018 30.06 848 25.04 1.7 35.1 69 -3.4 25.9
02:30 1018 30.06 848 25.04 1.3 34.4 70 -3.6 25.5
02:35 1018 30.06 848 25.04 1.7 35.1 66 -3.9 25
02:40 1018 30.06 848 25.04 1.9 35.4 64 -4.3 24.3
02:45 1018 30.06 848 25.04 1.8 35.3 63 -4.5 24
02:50 1018 30.06 848 25.04 1.8 35.2 66 -3.9 25
02:55 1018 30.06 848 25.04 2 35.5 62 -4.6 23.8
03:00 1018 30.06 848 25.04 2.4 36.3 62 -4.1 24.6
03:05 1018 30.06 848 25.04 2 35.6 63 -4.3 24.2
03:10 1018 30.06 848 25.04 1.3 34.3 65 -4.5 23.9
03:15 1019 30.09 848 25.04 0.8 33.4 67 -4.6 23.6
03:20 1019 30.09 848 25.04 1.3 34.4 62 -5.1 22.9
03:25 1019 30.09 848 25.04 1.7 35.1 63 -4.5 23.9
03:30 1019 30.09 848 25.04 1.5 34.6 65 -4.5 24
03:35 1019 30.09 848 25.04 1.5 34.8 63 -4.8 23.3
03:40 1019 30.09 848 25.04 1.6 34.9 63 -4.6 23.7
03:45 1019 30.09 848 25.04 1.4 34.5 65 -4.5 23.8
03:50 1018 30.06 848 25.04 1.1 34 66 -4.6 23.7
03:55 1018 30.06 848 25.04 1 33.9 66 -4.6 23.8
04:00 1019 30.09 848 25.04 0.7 33.2 68 -4.5 23.9
04:05 1019 30.09 848 25.04 0.1 32.1 68 -5.2 22.6
04:10 1019 30.09 848 25.04 0.1 32.3 68 -5 23
04:15 1019 30.09 848 25.04 0.2 32.3 67 -5.3 22.5
04:20 1019 30.09 848 25.04 0.3 32.5 65 -5.5 22.1
04:25 1019 30.09 848 25.04 0.5 32.9 67 -4.9 23.3
04:30 1019 30.09 848 25.04 0.5 32.9 68 -4.8 23.3
04:35 1019 30.09 848 25.04 0.6 33.1 67 -4.8 23.4
04:40 1019 30.09 848 25.04 0.6 33.1 67 -4.9 23.2
04:45 1019 30.09 848 25.04 0.4 32.6 68 -4.9 23.1
04:50 1019 30.09 848 25.04 0.2 32.3 67 -5.2 22.6
04:55 1019 30.09 848 25.04 -0.2 31.6 69 -5.3 22.4
05:00 1019 30.09 848 25.04 -0.4 31.2 67 -5.8 21.6
05:05 1019 30.09 848 25.04 -0.2 31.6 68 -5.5 22.2
05:10 1019 30.09 848 25.04 -0.2 31.6 69 -5.3 22.5
05:15 1019 30.09 848 25.04 0.1 32.2 66 -5.5 22
05:20 1019 30.09 848 25.04 0.1 32.3 64 -5.9 21.3
05:25 1019 30.09 848 25.04 0.4 32.8 62 -5.9 21.4
05:30 1019 30.09 848 25.04 0.5 32.8 61 -6.1 21
05:35 1019 30.09 848 25.04 0.1 32.2 64 -5.8 21.5
05:40 1019 30.09 848 25.04 -0.3 31.5 66 -5.9 21.4
05:45 1019 30.09 848 25.04 -0.7 30.8 67 -6 21.2
05:50 1019 30.09 848 25.04 -0.4 31.2 67 -5.8 21.6
05:55 1019 30.09 848 25.04 -0.5 31.1 67 -5.8 21.5
06:00 1019 30.09 848 25.04 -0.5 31 65 -6.4 20.5
06:05 1019 30.09 848 25.04 -0.2 31.7 65 -6 21.1
06:10 1019 30.09 848 25.04 -0.1 31.8 63 -6.3 20.6
06:15 1019 30.09 848 25.04 0.2 32.4 64 -5.9 21.4
06:20 1019 30.09 848 25.04 0.5 32.8 64 -5.6 21.9
06:25 1018 30.06 848 25.04 0.4 32.6 64 -5.7 21.8
06:30 1018 30.06 848 25.04 -0.3 31.5 65 -6 21.2
06:35 1019 30.09 848 25.04 -0.2 31.6 64 -6.3 20.6
06:40 1018 30.06 848 25.04 -0.4 31.2 65 -6.3 20.7
06:45 1019 30.09 848 25.04 -0.2 31.6 64 -6.2 20.9
06:50 1018 30.06 848 25.04 -0.1 31.8 64 -6.1 21.1
06:55 1019 30.09 848 25.04 -0.2 31.6 64 -6.2 20.9
07:00 1018 30.06 848 25.04 -0.1 31.8 63 -6.4 20.6
07:05 1018 30.06 848 25.04 -0.1 31.8 63 -6.2 20.8
07:10 1018 30.06 848 25.04 -0.2 31.7 64 -6.1 21.1
07:15 1019 30.09 848 25.04 -0.2 31.7 65 -6 21.2
07:20 1018 30.06 848 25.04 0.2 32.3 63 -6 21.1
07:25 1018 30.06 848 25.04 0.2 32.4 64 -5.9 21.4
07:30 1018 30.06 848 25.04 -0 32 64 -6 21.2
07:35 1018 30.06 848 25.04 0 32.1 63 -6.1 21
07:40 1018 30.06 848 25.04 0.1 32.2 63 -6.2 20.9
07:45 1018 30.06 848 25.04 1 33.7 59 -6.2 20.9
07:50 1019 30.09 848 25.04 1.4 34.6 58 -6 21.2
07:55 1019 30.09 848 25.04 1.9 35.5 56 -5.9 21.4
08:00 1019 30.09 848 25.04 2 35.6 56 -5.9 21.5
08:05 1019 30.09 848 25.04 1.6 34.9 58 -5.8 21.5
08:10 1019 30.09 848 25.04 1.1 33.9 59 -6 21.2
08:15 1019 30.09 848 25.04 0.8 33.4 61 -6 21.1
08:20 1019 30.09 848 25.04 1 33.8 59 -6.1 21
08:25 1018 30.06 848 25.04 1.4 34.6 57 -6.1 21
08:30 1018 30.06 848 25.04 1.9 35.4 56 -6 21.2
08:35 1019 30.09 848 25.04 2.2 36 55 -6 21.2
08:40 1018 30.06 848 25.04 2.5 36.4 53 -6.1 21.1
08:45 1018 30.06 848 25.04 2.9 37.3 52 -6 21.1
08:50 1018 30.06 848 25.04 3.6 38.5 49 -6.1 21.1
08:55 1018 30.06 848 25.04 4.3 39.7 46 -6.2 20.8
09:00 1018 30.06 848 25.04 4.5 40.1 48 -5.5 22.1
09:05 1018 30.06 847 25.01 4.2 39.5 50 -5.3 22.4
09:10 1018 30.06 847 25.01 3.9 39 50 -5.6 21.9
09:15 1018 30.06 847 25.01 3.9 39 49 -5.8 21.6
09:20 1018 30.06 847 25.01 4.7 40.4 47 -5.7 21.8
09:25 1018 30.06 847 25.01 5.2 41.3 45 -5.7 21.7
09:30 1018 30.06 847 25.01 5.1 41.2 45 -5.8 21.5
09:35 1018 30.06 847 25.01 5 41 46 -5.7 21.7
09:40 1018 30.06 847 25.01 5 40.9 45 -6.1 21.1
09:45 1018 30.06 847 25.01 5.3 41.5 45 -5.8 21.5
09:50 1018 30.06 847 25.01 5 41.1 45 -6 21.2
09:55 1018 30.06 847 25.01 5.5 41.9 44 -5.9 21.4
10:00 1018 30.06 847 25.01 6.3 43.3 42 -5.8 21.6
10:05 1018 30.06 847 25.01 6.6 43.9 39 -6.2 20.8
10:10 1018 30.06 847 25.01 7.2 44.9 38 -6.2 20.8
10:15 1018 30.06 847 25.01 7.4 45.2 39 -5.6 21.9
10:20 1018 30.06 847 25.01 7.5 45.4 39 -5.6 22
10:25 1018 30.06 847 25.01 7.3 45.1 39 -5.7 21.7
10:30 1018 30.06 847 25.01 7.4 45.4 38 -5.9 21.4
10:35 1018 30.06 847 25.01 7.8 46.1 37 -5.9 21.4
10:40 1018 30.06 847 25.01 8.6 47.4 36 -5.8 21.6
10:45 1018 30.06 847 25.01 8.9 48 35 -5.8 21.5
10:50 1018 30.06 847 25.01 9.3 48.7 33 -6.3 20.7
10:55 1018 30.06 847 25.01 9.7 49.5 32 -6 21.2
11:00 1017 30.03 847 25.01 9.7 49.5 32 -6 21.2
11:05 1017 30.03 847 25.01 9.4 48.9 35 -5.4 22.3
11:10 1017 30.03 846 24.98 8.7 47.7 39 -4.6 23.7
11:15 1017 30.03 846 24.98 8.2 46.8 39 -4.9 23.1
11:20 1017 30.03 846 24.98 8.3 47 39 -4.9 23.1
11:25 1017 30.03 846 24.98 8.6 47.4 38 -4.9 23.1
11:30 1017 30.03 846 24.98 8.7 47.6 37 -5.2 22.7
11:35 1017 30.03 846 24.98 9.3 48.7 37 -4.6 23.8
11:40 1017 30.03 846 24.98 9.4 48.8 37 -4.5 24
11:45 1017 30.03 846 24.98 9.3 48.8 37 -4.5 23.9
11:50 1017 30.03 846 24.98 9.7 49.5 35 -5 22.9
11:55 1016 30 846 24.98 9.6 49.2 37 -4.3 24.2
12:00 1016 30 846 24.98 10 50 35 -4.8 23.4
12:05 1016 30 846 24.98 10.6 51.2 33 -4.8 23.3
12:10 1016 30 845 24.95 10.7 51.3 33 -4.7 23.6
12:15 1016 30 845 24.95 9.7 49.4 35 -5.1 22.9
12:20 1016 30 845 24.95 9.7 49.5 33 -5.9 21.4
12:25 1016 30 845 24.95 9.4 49 37 -4.4 24
12:30 1016 30 845 24.95 9.1 48.3 39 -4.3 24.3
12:35 1016 30 845 24.95 8.5 47.4 41 -3.9 25
12:40 1016 30 845 24.95 8.8 47.9 41 -3.7 25.4
12:45 1016 30 845 24.95 9 48.1 39 -4.1 24.6
12:50 1016 30 845 24.95 9.6 49.4 39 -3.7 25.4
12:55 1016 30 845 24.95 10 50.1 38 -3.6 25.6
13:00 1016 30 845 24.95 10.2 50.4 39 -3.2 26.3
13:05 1016 30 845 24.95 9.9 49.7 39 -3.3 26.1
13:10 1016 30 845 24.95 9.3 48.7 41 -3.1 26.4
13:15 1016 30 845 24.95 9.1 48.3 39 -4.2 24.5
13:20 1016 30 845 24.95 9.6 49.3 38 -4.1 24.5
13:25 1016 30 845 24.95 9.6 49.3 37 -4.3 24.2
13:30 1015 29.97 845 24.95 10.1 50.2 36 -4.3 24.2
13:35 1015 29.97 845 24.95 10.3 50.5 34 -4.8 23.3
13:40 1015 29.97 845 24.95 10.7 51.2 33 -4.8 23.3
13:45 1015 29.97 844 24.92 11 51.8 33 -4.5 23.9
13:50 1015 29.97 844 24.92 11 51.8 31 -5.4 22.3
13:55 1015 29.97 844 24.92 11.7 53.1 30 -5.1 22.9
14:00 1015 29.97 844 24.92 12 53.5 30 -4.9 23.1
14:05 1015 29.97 844 24.92 11.7 53 31 -4.8 23.3
14:10 1015 29.97 844 24.92 11.3 52.3 33 -4.3 24.3
14:15 1015 29.97 844 24.92 11.4 52.4 33 -4.3 24.2
14:20 1015 29.97 844 24.92 10.9 51.7 35 -3.9 24.9
14:25 1015 29.97 844 24.92 10.7 51.3 38 -2.8 27
14:30 1015 29.97 844 24.92 9.5 49.1 42 -2.9 26.8
14:35 1015 29.97 844 24.92 8.8 47.9 43 -3 26.6
14:40 1015 29.97 844 24.92 8.9 48 41 -3.6 25.6
14:45 1015 29.97 844 24.92 9 48.1 42 -3.2 26.2
14:50 1015 29.97 844 24.92 8.8 47.8 43 -3.2 26.3
14:55 1015 29.97 844 24.92 9.1 48.3 41 -3.5 25.6
15:00 1015 29.97 844 24.92 9.1 48.4 39 -3.9 24.9
15:05 1015 29.97 844 24.92 8.9 48.1 36 -5.3 22.5
15:10 1015 29.97 844 24.92 9.3 48.8 36 -5 23.1
15:15 1015 29.97 844 24.92 9.6 49.3 36 -4.5 23.8
15:20 1015 29.97 844 24.92 9.8 49.7 35 -4.7 23.5
15:25 1015 29.97 844 24.92 10 49.9 37 -3.9 25
15:30 1015 29.97 844 24.92 9.9 49.8 38 -3.8 25.1
15:35 1015 29.97 844 24.92 9.7 49.5 40 -3.2 26.2
15:40 1015 29.97 844 24.92 9.4 48.8 40 -3.5 25.8
15:45 1015 29.97 844 24.92 8.7 47.6 40 -4 24.8
15:50 1015 29.97 844 24.92 8.5 47.2 40 -4.5 23.9
15:55 1015 29.97 844 24.92 8.5 47.3 41 -4.1 24.6
16:00 1015 29.97 844 24.92 8.6 47.4 40 -4.4 24.1
16:05 1015 29.97 844 24.92 8.7 47.7 37 -5 22.9
16:10 1015 29.97 844 24.92 8.6 47.4 38 -4.9 23.3
16:15 1015 29.97 844 24.92 8.4 47 37 -5.6 21.9
16:20 1015 29.97 844 24.92 8.3 46.9 41 -4.2 24.4
16:25 1015 29.97 844 24.92 7.7 45.9 42 -4.5 24
16:30 1015 29.97 844 24.92 7.5 45.5 40 -5.1 22.9
16:35 1015 29.97 844 24.92 7.8 46 37 -6.2 20.9
16:40 1015 29.97 844 24.92 8.4 47.2 31 -7.8 17.9
16:45 1015 29.97 844 24.92 9.3 48.7 29 -7.9 17.8
16:50 1015 29.97 844 24.92 9.6 49.2 28 -8.2 17.3
16:55 1015 29.97 844 24.92 9.8 49.6 27 -8.2 17.3
17:00 1015 29.97 844 24.92 10.1 50.2 25 -9 15.9
17:05 1015 29.97 844 24.92 10.4 50.7 25 -8.8 16.1
17:10 1015 29.97 844 24.92 10.4 50.7 25 -8.6 16.6
17:15 1015 29.97 844 24.92 10.4 50.6 26 -8.4 16.9
17:20 1015 29.97 844 24.92 10.4 50.8 25 -8.7 16.3
17:25 1015 29.97 844 24.92 10.6 51 25 -8.4 16.9
17:30 1015 29.97 844 24.92 10.5 50.9 26 -8.4 16.9
17:35 1015 29.97 844 24.92 10.6 51 25 -8.5 16.8
17:40 1015 29.97 844 24.92 10.6 51 26 -7.9 17.8
17:45 1015 29.97 844 24.92 10.4 50.7 26 -8.2 17.3
17:50 1015 29.97 844 24.92 10.5 50.8 26 -8.3 17.1
17:55 1015 29.97 844 24.92 10.5 50.9 26 -8.3 17.1
18:00 1015 29.97 844 24.92 10.5 50.9 26 -8.1 17.5
18:05 1015 29.97 844 24.92 10.2 50.4 28 -7.4 18.7
18:10 1015 29.97 844 24.92 9.7 49.5 29 -7.6 18.3
18:15 1015 29.97 844 24.92 9.7 49.4 29 -7.6 18.3
18:20 1015 29.97 844 24.92 9.4 48.9 29 -7.6 18.3
18:25 1015 29.97 844 24.92 9.4 48.9 30 -7.5 18.5
18:30 1015 29.97 844 24.92 9.4 48.9 30 -7.5 18.5
18:35 1015 29.97 844 24.92 9.3 48.7 30 -7.4 18.7
18:40 1015 29.97 844 24.92 9.4 48.8 29 -7.9 17.7
18:45 1015 29.97 844 24.92 9.6 49.3 30 -7.3 18.8
18:50 1015 29.97 844 24.92 9.3 48.7 29 -7.7 18.1
18:55 1015 29.97 844 24.92 9.5 49 29 -7.6 18.3
19:00 1015 29.97 844 24.92 9.4 48.8 30 -7.4 18.7
19:05 1015 29.97 844 24.92 9 48.3 31 -7.3 18.9
19:10 1015 29.97 844 24.92 8.8 47.9 32 -7.1 19.2
19:15 1015 29.97 844 24.92 8.9 48 31 -7.2 19
19:20 1015 29.97 844 24.92 9.1 48.3 31 -7 19.4
19:25 1015 29.97 844 24.92 9.1 48.4 31 -7.1 19.3
19:30 1015 29.97 844 24.92 9.1 48.3 31 -7 19.4
19:35 1014 29.94 844 24.92 9 48.1 32 -6.7 20
19:40 1014 29.94 844 24.92 8.7 47.7 32 -7.1 19.2
19:45 1014 29.94 844 24.92 9 48.2 32 -6.9 19.6
19:50 1015 29.97 844 24.92 9 48.1 32 -6.8 19.7
19:55 1015 29.97 844 24.92 9.1 48.3 31 -7.1 19.1
20:00 1015 29.97 844 24.92 9.3 48.8 31 -7.1 19.3
20:05 1015 29.97 844 24.92 9.3 48.7 30 -7.3 18.9
20:10 1015 29.97 844 24.92 9.2 48.6 31 -7 19.4
20:15 1015 29.97 844 24.92 9.3 48.7 31 -7.1 19.2
20:20 1015 29.97 844 24.92 9.2 48.6 30 -7.3 18.8
20:25 1015 29.97 844 24.92 9.5 49.2 30 -7.1 19.1
20:30 1015 29.97 844 24.92 9.3 48.7 30 -7.3 18.8
20:35 1014 29.94 844 24.92 9.1 48.5 30 -7.3 18.8
20:40 1014 29.94 844 24.92 9.2 48.5 29 -7.7 18.1
20:45 1014 29.94 844 24.92 9.2 48.6 30 -7.3 18.9
20:50 1014 29.94 844 24.92 9.2 48.6 29 -7.9 17.8
20:55 1014 29.94 844 24.92 8.8 47.9 29 -8.2 17.3
21:00 1014 29.94 844 24.92 9 48.2 29 -8.1 17.4
21:05 1014 29.94 843 24.89 9.1 48.3 28 -8.3 17
21:10 1014 29.94 844 24.92 9.1 48.3 30 -7.6 18.4
21:15 1014 29.94 843 24.89 8.8 47.8 30 -7.7 18.1
21:20 1014 29.94 843 24.89 8.7 47.7 30 -7.8 18
21:25 1014 29.94 843 24.89 8.7 47.6 30 -7.9 17.8
21:30 1014 29.94 843 24.89 8.7 47.7 30 -7.9 17.7
21:35 1014 29.94 843 24.89 8.7 47.7 30 -7.8 18
21:40 1014 29.94 843 24.89 8.6 47.4 30 -7.9 17.8
21:45 1014 29.94 843 24.89 8.6 47.5 29 -8.2 17.2
21:50 1014 29.94 843 24.89 8.5 47.3 30 -8 17.5
21:55 1014 29.94 843 24.89 8.5 47.3 30 -8.3 17.1
22:00 1014 29.94 843 24.89 8.6 47.4 29 -8.3 17.1
22:05 1014 29.94 843 24.89 8.5 47.2 30 -8 17.6
22:10 1014 29.94 843 24.89 8.1 46.6 30 -8.2 17.2
22:15 1014 29.94 843 24.89 8 46.4 31 -7.9 17.7
22:20 1014 29.94 844 24.92 7.8 46.1 32 -7.7 18.2
22:25 1015 29.97 844 24.92 7.3 45.1 34 -7.6 18.3
22:30 1015 29.97 844 24.92 7.1 44.8 35 -7.4 18.7
22:35 1015 29.97 844 24.92 6.8 44.2 36 -7.4 18.7
22:40 1015 29.97 844 24.92 6.7 44.1 36 -7.3 18.9
22:45 1015 29.97 844 24.92 7.1 44.7 34 -7.8 17.9
22:50 1015 29.97 844 24.92 7.3 45.1 33 -8.1 17.4
22:55 1015 29.97 844 24.92 7.4 45.4 32 -8.2 17.2
23:00 1015 29.97 844 24.92 7.7 45.8 32 -7.9 17.7
23:05 1015 29.97 844 24.92 7.7 45.8 31 -8.2 17.2
23:10 1015 29.97 844 24.92 7.8 46 31 -8.1 17.4
23:15 1015 29.97 844 24.92 7.8 46 32 -7.8 17.9
23:20 1015 29.97 844 24.92 7.2 45 35 -7.3 18.8
23:25 1015 29.97 844 24.92 6.6 43.9 34 -8 17.5
23:30 1015 29.97 844 24.92 6.5 43.7 33 -8.6 16.5
23:35 1015 29.97 844 24.92 7 44.6 33 -8.2 17.2
23:40 1014 29.94 844 24.92 7.3 45.1 32 -8.5 16.7
23:45 1014 29.94 844 24.92 7.1 44.8 33 -8.1 17.4
23:50 1014 29.94 844 24.92 6.8 44.2 34 -8.2 17.3
23:55 1014 29.94 844 24.92 6.5 43.7 35 -7.9 17.7
24:00 1015 29.97 844 24.92 6.3 43.3 38 -7.1 19.3